This demonstration page uses our WeatherBlox Daily Observations layout. Learn more.

Left ArrowRight Arrow

38.20091, -84.87328

Hourly Observations for December 9, 2022

Temp ( °F °C ) Dew Point ( °F °C ) Humidity (%) Winds ( mph kmh ) Pressure ( in mb ) Visibility ( mi km ) Precip ( " mm )
12:53 am 00:53 Cloudy 47 8.3 45 7.2 93 93 NE 7 11 30.19 1022 7 11 0.00 0.00
1:02 am 01:02 Cloudy 47 8.3 45 7.2 93 93 NE 7 11 30.20 1023 7 11 0.00 0.00
1:53 am 01:53 Cloudy with Mist and Fog 46 7.8 44 6.7 93 93 NE 5 7 30.18 1022 6 10 0.00 0.00
2:53 am 02:53 Cloudy with Mist and Fog 46 7.8 44 6.7 93 93 ENE 6 9 30.17 1022 6 10 0.00 0.00
3:43 am 03:43 Mostly Cloudy with Mist and Fog 45 7.2 43 6.1 93 93 NE 8 13 30.17 1022 6 10 0.00 0.00
3:53 am 03:53 Mostly Cloudy with Mist and Fog 45 7.2 43 6.1 93 93 NE 9 15 30.15 1021 6 10 0.00 0.00
4:09 am 04:09 Cloudy with Mist and Fog 45 7.2 43 6.1 93 93 NE 8 13 30.17 1022 5 8 0.00 0.00
4:53 am 04:53 Cloudy with Mist and Fog 45 7.2 43 6.1 93 93 E 5 7 30.15 1021 5 8 0.00 0.00
5:53 am 05:53 Cloudy with Mist and Fog 45 7.2 43 6.1 93 93 ENE 6 9 30.15 1021 5 8 0.00 0.00
6:53 am 06:53 Cloudy with Mist and Fog 46 7.8 44 6.7 93 93 ENE 7 11 30.15 1021 5 8 0.00 0.00
7:31 am 07:31 Cloudy with Mist and Fog 46 7.8 44 6.7 93 93 ENE 8 13 30.17 1022 4 6 0.00 0.00
7:53 am 07:53 Cloudy with Mist and Fog 46 7.8 44 6.7 93 93 ENE 8 13 30.15 1021 4 6 0.00 0.00
8:11 am 08:11 Cloudy with Mist and Fog 46 7.8 44 6.7 93 93 ENE 7 11 30.17 1022 2 3 0.00 0.00
8:21 am 08:21 Cloudy with Mist and Fog 46 7.8 44 6.7 93 93 ENE 8 13 30.17 1022 2 3 0.00 0.00
8:53 am 08:53 Cloudy with Mist and Fog 46 7.8 45 7.2 96 96 E 9 15 30.15 1021 1 2 0.00 0.00
9:53 am 09:53 Cloudy with Mist and Fog 46 7.8 45 7.2 96 96 E 6 9 30.15 1021 2 3 0.00 0.00
10:02 am 10:02 Cloudy with Mist and Fog 47 8.3 45 7.2 93 93 E 7 11 30.15 1021 2 3 0.00 0.00
10:09 am 10:09 Cloudy with Mist and Fog 47 8.3 45 7.2 93 93 ENE 6 9 30.17 1022 2 3 0.00 0.00
10:36 am 10:36 Cloudy with Mist and Fog 47 8.3 46 7.8 97 97 E 7 11 30.17 1022 3 5 0.00 0.00
10:53 am 10:53 Cloudy with Mist and Fog 48 8.9 46 7.8 93 93 E 7 11 30.14 1021 5 8 0.00 0.00
11:19 am 11:19 Cloudy with Mist and Fog 49 9.4 46 7.8 90 90 E 6 9 30.15 1021 6 10 0.00 0.00
11:53 am 11:53 Cloudy with Mist and Fog 50 10 47 8.3 89 89 E 7 11 30.11 1020 6 10 0.00 0.00
12:53 pm 12:53 Cloudy 51 10.6 47 8.3 86 86 SE 8 13 30.09 1019 10 16 0.00 0.00
1:53 pm 13:53 Cloudy 51 10.6 48 8.9 89 89 SSE 6 9 30.06 1018 8 13 0.00 0.00
2:53 pm 14:53 Cloudy with Mist and Fog 50 10 48 8.9 93 93 SSW 3 6 30.06 1018 6 10 0.00 0.00
3:29 pm 15:29 Cloudy with Mist and Fog 50 10 48 8.9 93 93 Calm 30.07 1018 5 8 0.00 0.00
3:53 pm 15:53 Cloudy with Mist and Fog 50 10 49 9.4 96 96 Calm 30.07 1018 3 4 0.00 0.00
4:17 pm 16:17 Cloudy with Mist and Fog 50 10 49 9.4 96 96 Calm 30.09 1019 2 3 0.00 0.00
4:28 pm 16:28 Cloudy with Mist and Fog 50 10 49 9.4 96 96 Calm 30.08 1019 2 3 0.00 0.00
4:53 pm 16:53 Cloudy with Mist and Fog 50 10 49 9.4 96 96 Calm 30.08 1019 2 3 0.00 0.00
5:30 pm 17:30 Cloudy with Mist and Fog 50 10 49 9.4 96 96 Calm 30.10 1019 2 3 0.00 0.00
5:53 pm 17:53 Cloudy with Mist and Fog 50 10 49 9.4 96 96 Calm 30.09 1019 2 3 0.00 0.00
6:01 pm 18:01 Cloudy with Mist and Fog 50 10 49 9.4 96 96 Calm 30.11 1020 2 3 0.00 0.00
6:17 pm 18:17 Cloudy with Mist and Fog 50 10 49 9.4 96 96 Calm 30.11 1020 1 2 0.00 0.00
6:46 pm 18:46 Cloudy with Mist and Fog 50 10 49 9.4 96 96 Calm 30.12 1020 2 2 0.00 0.00
6:53 pm 18:53 Cloudy with Mist and Fog 50 10 49 9.4 96 96 Calm 30.11 1020 2 2 0.00 0.00
7:13 pm 19:13 Cloudy with Mist and Fog 50 10 49 9.4 96 96 Calm 30.12 1020 3 4 0.00 0.00
7:21 pm 19:21 Cloudy with Mist and Fog 50 10 49 9.4 96 96 Calm 30.12 1020 4 6 0.00 0.00
7:53 pm 19:53 Cloudy with Mist and Fog 50 10 49 9.4 96 96 W 3 6 30.13 1020 5 8 0.00 0.00
8:53 pm 20:53 Cloudy 50 10 48 8.9 93 93 W 3 6 30.13 1020 7 11 0.00 0.00
9:31 pm 21:31 Cloudy 49 9.4 48 8.9 97 97 WNW 3 6 30.15 1021 7 11 0.00 0.00
9:46 pm 21:46 Cloudy with Mist and Fog 49 9.4 48 8.9 97 97 NNW 6 9 30.15 1021 6 10 0.00 0.00
9:53 pm 21:53 Cloudy with Mist and Fog 49 9.4 48 8.9 97 97 NNW 5 7 30.14 1021 5 8 0.00 0.00
10:17 pm 22:17 Cloudy 49 9.4 47 8.3 93 93 NW 5 7 30.15 1021 7 11 0.00 0.00
10:53 pm 22:53 Partly Cloudy with Mist and Fog 47 8.3 46 7.8 97 97 WSW 3 6 30.14 1021 5 8 0.00 0.00
11:01 pm 23:01 Mostly Clear with Mist and Fog 45 7.2 45 7.2 100 100 SSW 3 6 30.16 1021 1 2 0.00 0.00
11:03 pm 23:03 Mostly Clear with Mist and Fog 44 6.7 44 6.7 100 100 SSW 3 6 30.16 1021 1 1 0.00 0.00
11:11 pm 23:11 Mostly Clear with Fog 44 6.7 43 6.1 96 96 Calm 30.16 1021 0 0 0.00 0.00
11:53 pm 23:53 Mostly Clear with Fog 42 5.6 41 5 96 96 Calm 30.15 1021 0 0 0.00 0.00

Powered by AerisWeather